SCP
0 0 0 0 0 0 0 0 0 0 0 0 0 0 0 0 0 0 0 0 0 0 0 0 0 0 0 0 0 0 0 0 0 0 0 0 0 0 0 0 0 0 0
0 0 0 0 0 0 0 0 0 0 0 0 0 0 0 0 0 0 0 0 0 0 0 0 0 0 0 0 0 0 0 0 0 0 0 0 0 0 0 0 0 0 0
0 0 0 0 0 0 0 0 0 0 0 0 0 0 0 0 0 0 0 0 0 0 0 0 0 0 0 0 0 0 0 0 0 0 0 0 0 0 0 0 0 0 0
0 0 0 0 0 0 0 0 0 0 0 0 0 0 0 0 0 0 0 0 0 0 0 0 0 0 0 0 0 0 0 0 0 0 0 0 0 0 0 0 0 0 0
0 0 0 0 0 0 0 0 0 0 0 0 0 0 0 0 0 0 0 0 0 0 0 0 0 0 0 0 0 0 0 0 0 0 0 0 0 0 0 0 0 0 0
0 0 0 0 0 0 0 0 0 0 0 0 0 0 0 0 0 0 0 0 0 0 0 0 0 0 0 0 0 0 0 0 0 0 0 0 0 0 0 0 0 0 0
0 0 0 0 0 0 0 0 0 0 0 0 0 0 0 0 0 0 0 0 0 0 0 0 0 0 0 0 0 0 0 0 0 0 0 0 0 0 0 0 0 0 0
0 0 0 0 0 0 0 0 0 0 0 0 0 0 0 0 0 0 0 0 0 0 0 0 0 0 0 0 0 0 0 0 0 0 0 0 0 0 0 0 0 0 0
0 0 0 0 0 0 0 0 0 0 0 0 0 0 0 0 0 0 0 0 0 0 0 0 0 0 0 0 0 0 0 0 0 0 0 0 0 0 0 0 0 0 0
0 0 0 0 0 0 0 0 0 0 0 0 0 0 0 0 0 0 0 0 0 0 0 0 0 0 0 0 0 0 0 0 0 0 0 0 0 0 0 0 0 0 0
0 0 0 0 0 0 0 0 0 0 0 0 0 0 0 0 0 0 0 0 0 0 0 0 0 0 0 0 0 0 0 0 0 0 0 0 0 0 0 0 0 0 0
0 0 0 0 0 0 0 0 0 0 0 0 0 0 0 0 0 0 0 0 0 0 0 0 0 0 0 0 0 0 0 0 0 0 0 0 0 0 0 0 0 0 0
0 0 0 0 0 0 0 0 0 0 0 0 0 0 0 0 0 0 0 0 0 0 0 0 0 0 0 0 0 0 0 0 0 0 0 0 0 0 0 0 0 0 0
0 0 0 0 0 0 0 0 0 0 0 0 0 0 0 0 0 0 0 0 0 0 0 0 0 0 0 0 0 0 0 0 0 0 0 0 0 0 0 0 0 0 0
0 0 0 0 0 0 0 0 0 0 0 0 0 0 0 0 0 0 0 0 0 0 0 0 0 0 0 0 0 0 0 0 0 0 0 0 0 0 0 0 0 0 0
0 0 0 0 0 0 0 0 0 0 0 0 0 0 0 0 0 0 0 0 0 0 0 0 0 0 0 0 0 0 0 0 0 0 0 0 0 0 0 0 0 0 0
0 0 0 0 0 0 0 0 0 0 0 0 0 0 0 0 0 0 0 0 0 0 0 0 0 0 0 0 0 0 0 0 0 0 0 0 0 0 0 0 0 0 0
0 0 0 0 0 0 0 0 0 0 0 0 0 0 0 0 0 0 0 0 0 0 0 0 0 0 0 0 0 0 0 0 0 0 0 0 0 0 0 0 0 0 0
0 0 0 0 0 0 0 0 0 0 0 0 0 0 0 0 0 0 0 0 0 0 0 0 0 0 0 0 0 0 0 0 0 0 0 0 0 0 0 0 0 0 0
0 0 0 0 0 0 0 0 0 0 0 0 0 0 0 0 0 0 0 0 0 0 0 0 0 0 0 0 0 0 0 0 0 0 0 0 0 0 0 0 0 0 0
0 0 0 0 0 0 0 0 0 0 0 0 0 0 0 0 0 0 0 0 0 0 0 0 0 0 0 0 0 0 0 0 0 0 0 0 0 0 0 0 0 0 0
0 0 0 0 0 0 0 0 0 0 0 0 0 0 0 0 0 0 0 0 0 0 0 0 0 0 0 0 0 0 0 0 0 0 0 0 0 0 0 0 0 0 0
0 0 0 0 0 0 0 0 0 0 0 0 0 0 0 0 0 0 0 0 0 0 0 0 0 0 0 0 0 0 0 0 0 0 0 0 0 0 0 0 0 0 0
0 0 0 0 0 0 0 0 0 0 0 0 0 0 0 0 0 0 0 0 0 0 0 0 0 0 0 0 0 0 0 0 0 0 0 0 0 0 0 0 0 0 0
0 0 0 0 0 0 0 0 0 0 0 0 0 0 0 0 0 0 0 0 0 0 0 0 0 0 0 0 0 0 0 0 0 0 0 0 0 0 0 0 0 0 0
0 0 0 0 0 0 0 0 0 0 0 0 0 0 0 0 0 0 0 0 0 0 0 0 0 0 0 0 0 0 0 0 0 0 0 0 0 0 0 0 0 0 0
Wind_Speed
2 2 2 2 2 2 2 2 3 4 4 5 5 5 5 6 6 5 4 11 12 12 12 12 12 12 12 12 12 13 13 12 12 12 12 12 11 11 11 10 10 10 10
2 2 3 3 3 2 2 2 3 3 3 3 4 4 5 4 5 5 4 6 10 11 11 11 11 11 12 13 13 13 13 12 13 13 13 12 12 12 11 11 10 10 10
3 3 3 3 2 2 3 3 3 3 3 3 3 4 4 3 3 4 5 4 4 8 11 11 10 10 11 11 12 12 12 12 12 12 13 13 12 12 11 11 10 10 10
4 3 2 2 2 3 2 2 2 3 3 3 3 3 3 2 3 3 3 3 3 4 6 10 10 10 10 10 11 11 11 11 11 11 11 11 11 11 10 10 10 10 10
4 3 2 2 3 2 2 2 2 2 2 2 2 2 2 2 2 3 3 3 4 4 3 6 9 9 9 9 10 10 10 10 10 10 10 10 10 10 10 10 10 10 10
3 3 2 3 2 2 2 2 2 2 1 1 2 2 1 1 2 2 3 3 3 4 4 4 4 5 8 9 9 9 10 10 9 9 9 9 9 9 9 10 10 10 10
2 3 2 2 2 2 1 1 1 2 1 1 1 1 1 1 2 2 2 2 3 3 3 4 3 3 3 8 9 9 9 9 8 8 8 8 9 9 9 9 9 9 9
2 2 2 2 1 1 1 1 1 1 1 0 0 0 0 2 2 1 1 1 2 2 2 3 4 4 4 3 5 8 8 8 8 8 8 8 8 8 8 8 8 8 8
1 2 2 2 1 1 1 1 1 1 0 1 1 0 1 1 1 1 0 1 2 2 1 2 3 4 5 4 3 5 7 7 7 7 8 7 7 7 7 7 6 6 7
1 1 1 2 2 2 2 1 1 1 1 1 2 1 0 1 2 0 1 1 1 2 1 2 3 3 4 4 5 6 7 6 6 6 6 6 6 6 6 5 5 5 5
2 2 2 2 1 1 2 2 1 1 1 1 1 1 1 1 0 2 1 1 0 0 1 2 2 2 4 4 3 5 6 6 5 5 5 5 5 5 5 4 4 4 4
1 1 1 1 1 1 1 1 1 2 1 1 1 1 1 0 1 1 1 2 1 1 1 2 2 2 3 3 5 7 6 5 5 4 4 3 3 3 4 3 3 3 3
1 2 1 1 1 2 2 1 1 2 2 2 2 1 1 1 1 1 1 1 1 1 1 1 2 3 3 3 4 7 5 5 4 4 3 2 2 2 2 2 1 1 2
2 2 2 2 1 1 2 2 1 2 2 2 2 2 1 1 0 0 1 1 0 1 1 2 1 3 3 4 5 6 4 6 4 3 2 2 1 1 0 1 1 1 1
2 3 3 2 1 1 1 2 2 2 2 1 2 2 1 1 1 0 1 2 2 1 2 2 1 2 3 3 6 4 3 6 5 4 3 2 1 1 1 1 0 1 1
1 2 2 2 2 2 1 1 2 2 2 1 1 1 1 1 1 1 1 1 1 2 1 1 1 2 2 3 5 3 3 7 7 5 4 3 2 2 2 2 2 1 1
0 1 2 1 2 2 2 2 2 3 2 2 2 2 2 2 1 1 1 1 1 1 1 1 0 2 2 2 2 2 3 4 4 6 5 5 4 3 3 3 3 2 2
1 1 1 1 2 2 2 2 1 2 2 2 2 2 2 1 1 0 0 1 1 1 2 1 1 1 2 3 3 2 2 3 3 6 7 6 6 4 4 4 3 3 2
1 0 0 1 1 2 2 2 2 2 3 3 2 2 2 2 2 1 1 1 1 0 1 2 1 1 1 2 2 2 2 1 3 5 7 7 6 6 5 5 5 4 3
1 1 1 1 1 1 1 1 2 2 3 2 2 2 2 3 3 2 2 2 1 1 1 1 1 1 1 1 2 2 1 2 2 2 4 4 6 6 7 6 6 5 4
1 1 1 1 1 0 0 1 2 2 2 2 2 1 1 2 2 2 2 2 2 1 1 1 1 0 1 1 2 2 2 2 2 2 2 2 3 2 4 6 7 7 6
1 1 1 1 1 0 0 1 2 2 2 2 2 2 2 2 2 3 3 3 3 3 2 2 2 2 3 3 2 2 2 2 2 2 2 3 3 3 3 4 7 8 8
2 1 1 1 2 1 1 2 3 2 3 2 2 2 2 2 3 2 3 3 3 4 4 3 3 4 3 3 3 2 3 3 3 3 2 3 2 3 3 4 9 10 10
2 2 2 2 2 2 2 3 4 3 3 3 2 2 2 1 1 2 2 3 4 4 5 4 3 3 3 3 4 4 4 3 1 1 2 2 2 3 3 3 8 10 10
2 2 2 3 2 2 3 3 2 2 3 3 3 2 2 2 1 1 2 3 4 4 5 6 6 4 3 3 2 2 1 1 2 2 2 2 2 2 2 3 5 9 9
3 2 2 2 3 2 2 3 3 2 3 3 3 2 2 2 2 2 2 2 4 4 3 4 4 4 4 4 4 4 4 3 2 2 3 2 2 1 2 2 2 3 4
Wind_Direction
67 64 69 48 52 55 59 44 53 52 47 47 56 62 68 76 83 80 70 70 72 73 76 77 78 79 79 77 76 81 81 79 77 74 72 72 75 74 75 77 79 81 80
73 67 58 55 48 40 39 49 56 54 55 52 55 63 64 70 87 97 96 78 75 75 76 77 76 78 80 79 78 79 80 80 77 75 73 72 72 72 74 75 76 79 80
82 80 62 56 53 42 36 46 51 48 54 52 54 60 67 55 74 99 106 103 88 78 77 77 77 78 79 80 79 78 79 79 79 76 75 73 72 71 70 72 76 76 78
79 80 74 63 63 59 44 39 56 54 52 42 44 42 59 52 46 74 99 107 108 95 83 84 80 79 81 84 85 82 81 82 81 78 76 75 74 73 72 71 72 75 77
71 78 70 69 61 60 46 32 46 60 64 57 67 53 44 53 46 55 69 91 101 107 99 93 85 81 82 86 87 87 84 83 83 80 79 79 78 78 78 76 74 73 75
75 84 79 82 70 69 56 45 47 56 75 55 67 61 38 75 62 49 47 58 82 102 113 110 96 82 82 83 84 86 87 85 85 84 82 81 80 81 82 80 76 74 73
92 96 81 76 76 77 67 66 60 47 56 85 69 41 10 56 75 81 64 59 60 76 99 114 114 102 88 84 80 82 82 83 87 87 83 83 85 84 80 78 78 75 72
94 114 122 111 106 105 76 63 71 40 331 358 113 141 45 8 359 82 94 95 84 74 69 84 96 101 95 89 82 82 77 79 82 81 84 88 89 85 81 78 77 76 74
110 111 126 132 146 157 172 166 160 127 281 312 0 111 125 170 293 336 104 105 96 82 73 77 86 98 103 96 91 80 80 81 85 84 80 83 89 88 86 83 80 78 76
133 141 148 162 180 176 176 203 165 170 169 271 318 338 132 144 139 321 332 18 102 107 104 80 79 85 96 99 99 94 85 81 85 86 85 82 87 92 90 86 84 81 77
164 179 182 202 196 184 185 185 171 192 186 187 226 295 323 348 121 145 215 245 344 138 136 120 114 106 106 112 114 107 96 87 86 84 84 83 82 85 87 85 85 84 79
179 201 189 204 205 197 201 194 189 196 202 191 234 227 204 180 231 179 190 198 195 214 164 137 135 133 125 121 123 120 113 105 99 88 80 76 77 82 84 82 85 94 84
194 217 199 221 207 194 199 185 213 209 206 203 219 235 241 240 196 179 157 193 198 207 156 173 168 152 143 128 131 136 133 127 117 102 90 80 79 80 74 70 68 94 99
193 197 206 224 197 186 207 182 219 226 223 217 216 214 227 251 247 194 163 152 184 266 190 206 172 161 151 142 154 155 156 150 143 135 122 100 104 126 67 32 37 38 51
199 190 190 196 179 176 214 192 218 226 231 230 214 218 213 233 236 267 225 169 163 198 244 209 177 178 147 136 160 167 162 171 169 167 163 157 166 187 220 252 311 320 315
192 177 188 187 175 184 201 191 226 241 228 229 217 224 221 228 227 234 277 276 184 170 222 227 194 168 145 149 169 170 170 176 183 184 186 192 201 209 219 232 234 245 262
185 194 200 197 193 199 190 182 227 224 226 223 226 224 228 212 176 220 238 296 261 164 188 280 188 149 134 141 145 166 165 174 188 196 200 206 214 226 226 232 240 248 253
200 223 208 211 221 211 197 176 216 236 230 232 225 214 217 200 180 175 179 275 286 203 161 210 247 170 172 176 161 183 187 186 185 198 202 207 212 220 228 230 236 238 242
201 221 219 231 236 224 216 196 201 227 230 234 223 212 203 179 191 187 178 221 241 212 140 166 224 214 185 172 155 194 210 212 203 189 199 207 211 219 227 228 228 232 234
168 195 231 245 248 232 253 255 236 231 230 231 234 229 217 184 191 190 193 206 195 167 147 150 186 237 209 189 151 186 233 234 232 205 198 200 211 220 226 230 226 223 223
186 217 217 257 285 222 318 317 289 274 250 237 225 224 228 180 176 176 185 190 177 167 159 159 184 233 238 188 203 201 209 231 242 215 185 206 205 214 219 228 226 223 219
204 230 227 220 237 254 313 316 313 291 278 253 230 225 215 201 196 195 193 181 177 185 189 185 200 209 229 218 203 201 196 195 250 233 184 225 195 212 221 219 218 215 215
195 215 239 224 209 211 231 265 281 285 272 267 244 230 248 220 191 194 205 208 220 226 204 191 205 217 215 211 190 208 207 200 223 227 178 232 217 220 226 223 207 210 214
202 208 222 226 208 209 227 255 259 257 269 274 265 232 218 214 200 192 201 212 221 223 221 216 219 226 225 207 191 199 213 217 249 238 158 222 230 226 231 223 210 210 214
212 221 215 222 217 218 223 243 236 244 255 265 274 271 236 206 247 220 221 230 235 243 233 227 228 237 253 253 203 160 182 188 246 254 207 200 238 237 226 227 221 208 206
217 222 226 231 217 210 215 225 218 232 250 259 266 270 273 246 248 216 213 242 242 242 238 235 238 245 244 240 219 192 188 198 218 242 219 192 224 196 266 241 208 200 208